This demonstration page uses our WeatherBlox Daily Observations layout. Learn more.

Left ArrowRight Arrow

Hourly Observations for April 20, 2018

Temp ( °F °C ) Dew Point ( °F °C ) Humidity (%) Winds ( mph kmh ) Pressure ( in mb ) Visibility ( mi km ) Precip ( " mm )
12:51 am 00:51 Clear 58 14.4 20 -6.7 23 23 NW 13 20 29.71 1006 10 16 0.00 0.00
1:51 am 01:51 Clear 57 13.9 24 -4.4 28 28 NW 20 31 29.72 1007 10 16 0.00 0.00
2:51 am 02:51 Clear 54 12.2 25 -3.9 33 33 NW 18 30 29.77 1008 10 16 0.00 0.00
3:51 am 03:51 Clear 53 11.7 23 -5 31 31 WNW 22 35 29.78 1008 10 16 0.00 0.00
4:51 am 04:51 Clear 52 11.1 21 -6.1 30 30 NW 20 31 29.82 1010 10 16 0.00 0.00
5:51 am 05:51 Sunny 47 8.3 23 -5 39 39 WNW 7 11 29.84 1010 10 16 0.00 0.00
6:51 am 06:51 Sunny 52 11.1 23 -5 32 32 NW 8 13 29.87 1011 10 16 0.00 0.00
7:51 am 07:51 Sunny 56 13.3 26 -3.3 32 32 NW 10 17 29.89 1012 10 16 0.00 0.00
8:51 am 08:51 Sunny 59 15 22 -5.6 24 24 NW 17 28 29.91 1013 10 16 0.00 0.00
9:51 am 09:51 Sunny 61 16.1 21 -6.1 21 21 NW 14 22 29.91 1013 10 16 0.00 0.00
10:51 am 10:51 Sunny 64 17.8 22 -5.6 20 20 NW 13 20 29.90 1013 10 16 0.00 0.00
11:51 am 11:51 Sunny 66 18.9 21 -6.1 18 18 NW 12 19 29.89 1012 10 16 0.00 0.00
12:51 pm 12:51 Sunny 70 21.1 18 -7.8 14 14 WNW 21 33 29.87 1012 10 16 0.00 0.00
1:51 pm 13:51 Sunny 71 21.7 15 -9.4 12 12 WNW 23 37 29.86 1011 10 16 0.00 0.00
2:51 pm 14:51 Sunny 71 21.7 16 -8.9 12 12 WNW 22 35 29.85 1011 10 16 0.00 0.00
3:51 pm 15:51 Sunny 71 21.7 17 -8.3 13 13 NW 21 33 29.85 1011 10 16 0.00 0.00
4:51 pm 16:51 Sunny 70 21.1 19 -7.2 14 14 NW 22 35 29.86 1011 10 16 0.00 0.00
5:51 pm 17:51 Sunny 68 20 21 -6.1 17 17 WNW 22 35 29.88 1012 10 16 0.00 0.00
6:51 pm 18:51 Sunny 64 17.8 22 -5.6 20 20 WNW 18 30 29.90 1013 10 16 0.00 0.00
7:51 pm 19:51 Clear 62 16.7 23 -5 22 22 WNW 15 24 29.94 1014 10 16 0.00 0.00
8:51 pm 20:51 Clear 60 15.6 24 -4.4 25 25 WNW 15 24 29.97 1015 10 16 0.00 0.00
9:51 pm 21:51 Clear 58 14.4 24 -4.4 27 27 NW 14 22 29.98 1015 10 16 0.00 0.00
10:51 pm 22:51 Clear 56 13.3 24 -4.4 29 29 NNW 8 13 30.00 1016 10 16 0.00 0.00
11:51 pm 23:51 Clear 56 13.3 25 -3.9 30 30 NW 10 17 30.00 1016 10 16 0.00 0.00

Powered by AerisWeather